When you browse on this site, cookies collect data to enhance your experience and personalize the content and advertising you see.
Visit our Privacy Policy to learn more. By continuing to use the site, you agree to this use of cookies and data.
  • In Czech Republic
  • List of Countries
  • For 7 days
  • Water Temperature
  • Satellite Maps
  • Weather Map
  • Weather Widgets
  • user-avatar
    Login

    Hourly Weather Lipnica

    Today, 20 May, Monday

    Time Temperature Precipitation Wind Pressure Humidity
    00:00 +16°C° 0 mm 3 mps 747 mmHg 87%
    01:00 +14°C° 0 mm 3 mps 747 mmHg 87%
    02:00 +14°C° 0 mm 3 mps 748 mmHg 88%
    03:00 +14°C° 0 mm 3 mps 748 mmHg 87%
    04:00 +14°C° 0 mm 3 mps 748 mmHg 87%
    05:00 +14°C° 0 mm 4 mps 748 mmHg 86%
    06:00 +17°C° 0 mm 4 mps 748 mmHg 79%
    07:00 +19°C° 0 mm 5 mps 748 mmHg 71%
    08:00 +20°C° 0 mm 5 mps 748 mmHg 63%
    09:00 +22°C° 0 mm 6 mps 748 mmHg 60%
    10:00 +23°C° 0 mm 6 mps 748 mmHg 57%
    11:00 +24°C° 0 mm 6 mps 748 mmHg 53%
    12:00 +24°C° 0 mm 6 mps 748 mmHg 52%
    13:00 +26°C° 0 mm 6 mps 748 mmHg 50%
    14:00 +26°C° 0 mm 6 mps 748 mmHg 48%
    15:00 +26°C° 0 mm 6 mps 747 mmHg 50%
    16:00 +24°C° 0 mm 6 mps 747 mmHg 52%
    17:00 +25°C° 0 mm 5 mps 747 mmHg 54%
    18:00 +22°C° 0 mm 5 mps 747 mmHg 58%
    19:00 +21°C° 0 mm 5 mps 747 mmHg 62%
    20:00 +19°C° 0 mm 4 mps 747 mmHg 67%
    21:00 +19°C° 0 mm 4 mps 747 mmHg 67%
    22:00 +17°C° 0 mm 5 mps 747 mmHg 68%
    23:00 +16°C° 0 mm 5 mps 747 mmHg 69%

    Tomorrow, 21 May, Tuesday

    Time Temperature Precipitation Wind Pressure Humidity
    00:00 +16°C° 0 mm 5 mps 747 mmHg 69%
    01:00 +16°C° 0 mm 5 mps 747 mmHg 70%
    02:00 +15°C° 0 mm 5 mps 747 mmHg 71%
    03:00 +15°C° 0 mm 5 mps 747 mmHg 71%
    04:00 +15°C° 0 mm 5 mps 746 mmHg 72%
    05:00 +15°C° 0 mm 4 mps 746 mmHg 73%
    06:00 +16°C° 0 mm 5 mps 746 mmHg 70%
    07:00 +17°C° 0 mm 5 mps 746 mmHg 67%
    08:00 +19°C° 0 mm 6 mps 746 mmHg 65%
    09:00 +21°C° 0 mm 6 mps 746 mmHg 61%
    10:00 +22°C° 0 mm 6 mps 746 mmHg 57%
    11:00 +23°C° 0 mm 7 mps 746 mmHg 53%
    12:00 +24°C° 0 mm 7 mps 746 mmHg 52%
    13:00 +24°C° 0 mm 7 mps 745 mmHg 52%
    14:00 +26°C° 0 mm 7 mps 745 mmHg 52%
    15:00 +24°C° 0.7 mm 6 mps 745 mmHg 60%
    16:00 +22°C° 0.7 mm 6 mps 744 mmHg 67%
    17:00 +21°C° 0.7 mm 5 mps 744 mmHg 75%
    18:00 +20°C° 0.2 mm 5 mps 744 mmHg 80%
    19:00 +19°C° 0.2 mm 4 mps 744 mmHg 85%
    20:00 +17°C° 0.2 mm 3 mps 744 mmHg 90%
    21:00 +17°C° 0 mm 3 mps 744 mmHg 91%
    22:00 +16°C° 0 mm 3 mps 744 mmHg 93%
    23:00 +14°C° 0 mm 3 mps 744 mmHg 94%

    Day after tomorrow, 22 May, Wednesday

    Time Temperature Precipitation Wind Pressure Humidity
    00:00 +14°C° 0 mm 3 mps 744 mmHg 95%
    01:00 +13°C° 0 mm 3 mps 743 mmHg 95%
    02:00 +13°C° 0 mm 3 mps 743 mmHg 96%
    03:00 +14°C° 0 mm 2 mps 743 mmHg 97%
    04:00 +14°C° 0 mm 2 mps 743 mmHg 97%
    05:00 +14°C° 0 mm 2 mps 743 mmHg 98%
    06:00 +15°C° 0 mm 2 mps 743 mmHg 93%
    07:00 +17°C° 0 mm 2 mps 743 mmHg 88%
    08:00 +19°C° 0 mm 2 mps 743 mmHg 83%
    09:00 +20°C° 0 mm 2 mps 743 mmHg 74%
    10:00 +23°C° 0 mm 2 mps 743 mmHg 65%
    11:00 +25°C° 0 mm 2 mps 743 mmHg 56%
    12:00 +25°C° 0.1 mm 2 mps 743 mmHg 54%
    13:00 +26°C° 0.1 mm 2 mps 742 mmHg 51%
    14:00 +26°C° 0.1 mm 3 mps 742 mmHg 49%
    15:00 +26°C° 0.1 mm 2 mps 742 mmHg 51%
    16:00 +26°C° 0.1 mm 2 mps 742 mmHg 53%
    17:00 +25°C° 0.1 mm 2 mps 742 mmHg 55%
    18:00 +23°C° 0.1 mm 1 mps 741 mmHg 62%
    19:00 +22°C° 0.1 mm 1 mps 741 mmHg 69%
    20:00 +20°C° 0.1 mm 1 mps 741 mmHg 76%
    21:00 +19°C° 0 mm 1 mps 742 mmHg 79%
    22:00 +18°C° 0 mm 1 mps 742 mmHg 83%
    23:00 +16°C° 0 mm 1 mps 742 mmHg 87%

    23 May, Thursday

    Time Temperature Precipitation Wind Pressure Humidity
    00:00 +15°C° 0 mm 1 mps 742 mmHg 88%
    01:00 +15°C° 0 mm 1 mps 741 mmHg 89%
    02:00 +15°C° 0 mm 1 mps 741 mmHg 90%
    03:00 +15°C° 0 mm 1 mps 741 mmHg 90%
    04:00 +15°C° 0 mm 1 mps 741 mmHg 89%
    05:00 +15°C° 0 mm 1 mps 741 mmHg 89%
    06:00 +18°C° 0 mm 1 mps 742 mmHg 82%
    07:00 +20°C° 0 mm 1 mps 742 mmHg 76%
    08:00 +22°C° 0 mm 1 mps 742 mmHg 69%
    09:00 +23°C° 0 mm 1 mps 742 mmHg 63%
    10:00 +24°C° 0 mm 2 mps 742 mmHg 57%
    11:00 +25°C° 0 mm 2 mps 742 mmHg 51%
    12:00 +26°C° 0 mm 2 mps 741 mmHg 49%
    13:00 +26°C° 0 mm 2 mps 741 mmHg 47%
    14:00 +27°C° 0 mm 2 mps 741 mmHg 45%
    15:00 +26°C° 0 mm 2 mps 741 mmHg 48%
    16:00 +26°C° 0 mm 2 mps 741 mmHg 50%
    17:00 +25°C° 0 mm 1 mps 741 mmHg 53%
    18:00 +24°C° 0 mm 1 mps 741 mmHg 60%
    19:00 +22°C° 0 mm 1 mps 741 mmHg 66%
    20:00 +20°C° 0 mm 1 mps 741 mmHg 73%
    21:00 +19°C° 0.1 mm 1 mps 741 mmHg 79%
    22:00 +18°C° 0.1 mm 1 mps 741 mmHg 84%
    23:00 +16°C° 0.1 mm 2 mps 741 mmHg 89%

    24 May, Friday

    Time Temperature Precipitation Wind Pressure Humidity
    00:00 +16°C° 0.2 mm 1 mps 741 mmHg 90%
    01:00 +15°C° 0.2 mm 1 mps 740 mmHg 91%
    02:00 +14°C° 0.2 mm 0 mps 740 mmHg 92%
    03:00 +14°C° 0 mm 0 mps 740 mmHg 92%
    04:00 +14°C° 0 mm 0 mps 740 mmHg 91%
    05:00 +15°C° 0 mm 0 mps 740 mmHg 91%
    06:00 +18°C° 0 mm 1 mps 740 mmHg 86%
    07:00 +19°C° 0 mm 1 mps 740 mmHg 81%
    08:00 +21°C° 0 mm 1 mps 740 mmHg 76%
    09:00 +22°C° 0.3 mm 1 mps 740 mmHg 71%
    10:00 +23°C° 0.3 mm 1 mps 740 mmHg 66%
    11:00 +24°C° 0.3 mm 2 mps 740 mmHg 61%
    12:00 +24°C° 0.4 mm 2 mps 740 mmHg 62%
    13:00 +24°C° 0.4 mm 2 mps 740 mmHg 63%
    14:00 +24°C° 0.4 mm 2 mps 739 mmHg 64%
    15:00 +24°C° 0.3 mm 2 mps 739 mmHg 65%
    16:00 +24°C° 0.3 mm 2 mps 739 mmHg 66%
    17:00 +23°C° 0.3 mm 2 mps 739 mmHg 67%
    18:00 +21°C° 0.7 mm 2 mps 739 mmHg 75%
    19:00 +19°C° 0.7 mm 2 mps 739 mmHg 83%
    20:00 +18°C° 0.7 mm 2 mps 739 mmHg 91%
    21:00 +17°C° 0.5 mm 2 mps 739 mmHg 93%
    22:00 +16°C° 0.5 mm 2 mps 739 mmHg 94%
    23:00 +16°C° 0.5 mm 2 mps 739 mmHg 96%

    25 May, Saturday

    Time Temperature Precipitation Wind Pressure Humidity
    00:00 +15°C° 0 mm 2 mps 739 mmHg 97%
    01:00 +15°C° 0 mm 2 mps 739 mmHg 97%
    02:00 +14°C° 0 mm 2 mps 739 mmHg 98%
    03:00 +13°C° 0 mm 3 mps 739 mmHg 97%
    04:00 +14°C° 0 mm 3 mps 739 mmHg 97%
    05:00 +14°C° 0 mm 3 mps 739 mmHg 97%
    06:00 +14°C° 0.1 mm 3 mps 739 mmHg 95%
    07:00 +16°C° 0.1 mm 3 mps 739 mmHg 94%
    08:00 +16°C° 0.1 mm 3 mps 739 mmHg 92%
    09:00 +16°C° 0 mm 3 mps 739 mmHg 90%
    10:00 +16°C° 0 mm 3 mps 739 mmHg 88%
    11:00 +17°C° 0 mm 3 mps 739 mmHg 86%
    12:00 +18°C° 0 mm 3 mps 739 mmHg 81%
    13:00 +19°C° 0 mm 4 mps 739 mmHg 76%
    14:00 +20°C° 0 mm 4 mps 739 mmHg 70%
    15:00 +20°C° 0 mm 4 mps 739 mmHg 69%
    16:00 +20°C° 0 mm 4 mps 739 mmHg 68%
    17:00 +20°C° 0 mm 4 mps 739 mmHg 67%
    18:00 +19°C° 0 mm 4 mps 739 mmHg 73%
    19:00 +18°C° 0 mm 3 mps 739 mmHg 79%
    20:00 +16°C° 0 mm 2 mps 739 mmHg 84%
    21:00 +16°C° 0 mm 2 mps 739 mmHg 87%
    22:00 +15°C° 0 mm 2 mps 739 mmHg 89%
    23:00 +14°C° 0 mm 2 mps 739 mmHg 91%
    Show more